Meath Environmental Platform

Observations for Trim Market St

Time AQI Temp °C Hum % Pres Pa CO μg/m³ H₂S μg/m³ NO μg/m³ NO₂ μg/m³ O₃ μg/m³ SO₂ μg/m³ PM1 μg/m³ PM2.5 μg/m³ PM10 μg/m³
Monday 17 August 2026
14:12 2 25.5 53 56,534 0 0 1.17 11.63 60.22 0 1.43 2.85 3.15
14:11 2 25.5 53 56,349 0 0 1.22 11.68 56.8 0 0 2.33 2.42
14:08 2 25.4 53 55,826 0 0 1.17 12.59 68.13 0 2.14 3.86 4.61
14:05 2 25.5 53 56,311 0 0 1.13 11.53 61.84 0 0.71 2.84 3.15
13:58 2 25.4 53 55,513 0 0 1.24 13.08 57.64 0 0.71 2.83 3.16
13:57 2 25.4 53 55,529 0 0 1.24 12.81 70.7 0 0.71 2.83 3.16
13:56 2 25.4 53 55,542 0 0 1.12 11.59 60.01 0 1.43 3.34 3.89
13:55 2 25.4 53 55,584 0 0 1.05 11.22 59.87 0 0.71 2.32 3.16
13:54 2 25.4 53 55,584 0 0 1.04 11.64 68.48 0 0.71 2.83 3.16
13:53 2 25.4 53 55,627 0 0 1 11.74 63.9 0 0.71 3.35 4.62
13:52 2 25.4 53 55,668 0 0 1.17 11.72 69.87 0 1.43 3.35 3.89
13:51 2 25.4 53 55,736 0 0 1.21 11.54 60.52 0 1.43 3.86 4.61
13:50 2 25.4 53 55,829 0 0 1.27 12.27 67.55 0 1.43 4.38 5.34
13:49 2 25.4 53 55,932 0 0 1.29 14.39 53.79 0 0.71 2.85 3.15
13:48 2 25.4 53 56,076 0 0 1.38 11.77 56.19 0 1.43 2.85 3.15
13:47 2 25.4 53 56,282 0 0 1.15 11.57 61.67 0 2.14 4.9 6.07
13:46 2 25.5 52 56,512 0 0 1.07 11.71 61.48 0 0.71 3.37 4.6
13:45 2 25.5 52 56,865 0 0 1.08 11.52 61.53 0 1.43 2.86 3.14
13:43 2 25.6 52 57,127 0 0 1.14 11.31 58.81 0 0.71 2.86 3.14
13:42 2 25.7 52 57,124 0 0 1.31 11.3 59.76 0 0.71 2.86 3.14